Weather History for KBLM - November, 2010

Change the Weather History Date:

Friday, November 12, 2010

  Actual Average Record
Temperature  
Mean Temperature 48 °F -  
Max Temperature 60 °F 51 °F 66 °F (2014)
Min Temperature 37 °F 36 °F 26 °F (2001)
Degree Days  
Heating Degree Days 16    
Moisture  
Dew Point 18 °F    
Average Humidity 33    
Maximum Humidity 56    
Minimum Humidity 14    
Precipitation  
Precipitation 0.00 in - - ()
Sea Level Pressure  
Sea Level Pressure 30.39 in    
Wind  
Wind Speed 7 mph (North)    
Max Wind Speed 14 mph    
Max Gust Speed 22 mph    
Visibility 10 miles    
Events      
Averages and records for this station are not official NWS values.
T = Trace of Precipitation, MM = Missing Value Source: NWS Daily Summary

Daily Weather History Graph

Daily Weather History Graph

Search for Another Location

Airport or City:

Trip Planner

Search our weather history database for the weather conditions in past years. The results will help you decide how hot, cold, wet, or windy it might be!

Date:

Astronomy

Nov. 12, 2010 Rise Set
Actual Time 6:38 AM EST 4:42 PM EST
Civil Twilight 6:09 AM EST 5:11 PM EST
Nautical Twilight 5:36 AM EST 5:43 PM EST
Astronomical Twilight 5:04 AM EST 6:15 PM EST
Moon 12:07 PM EST (11/12) 10:47 PM EST (11/12)
Length of Visible Light 11h 01m
Length of Day
10h 03m
Waxing Crescent, 41% of the Moon is Illuminated
Nov 12
Waxing Crescent
Nov 13
First Quarter
Nov 21
Full
Nov 28
Last Quarter
Dec 5
New

Hourly Weather History & Observations

Time (EST) Temp. Windchill Dew Point Humidity Pressure Visibility Wind Dir Wind Speed Gust Speed Precip Events Conditions
12:15 AM 44.6 °F 40.7 °F 24.8 °F 46% 30.41 in 10.0 mi NNE 6.9 mph - N/A   Clear
12:35 AM 42.8 °F 38.6 °F 24.8 °F 49% 30.41 in 10.0 mi North 6.9 mph - N/A   Clear
12:55 AM 42.8 °F 39.3 °F 23.0 °F 46% 30.41 in 10.0 mi North 5.8 mph - N/A   Clear
1:15 AM 41.0 °F 37.1 °F 23.0 °F 49% 30.41 in 10.0 mi North 5.8 mph - N/A   Clear
1:35 AM 39.2 °F 34.2 °F 23.0 °F 52% 30.40 in 10.0 mi North 6.9 mph - N/A   Clear
1:55 AM 39.2 °F 34.2 °F 23.0 °F 52% 30.41 in 10.0 mi North 6.9 mph - N/A   Clear
2:15 AM 39.2 °F 34.2 °F 21.2 °F 49% 30.41 in 10.0 mi North 6.9 mph - N/A   Clear
2:35 AM 39.2 °F 34.2 °F 24.8 °F 56% 30.41 in 10.0 mi North 6.9 mph - N/A   Clear
2:55 AM 41.0 °F 36.4 °F 23.0 °F 49% 30.41 in 10.0 mi North 6.9 mph - N/A   Clear
3:15 AM 39.2 °F 34.2 °F 21.2 °F 49% 30.41 in 10.0 mi North 6.9 mph - N/A   Clear
3:35 AM 39.2 °F 35.0 °F 23.0 °F 52% 30.41 in 10.0 mi NNW 5.8 mph - N/A   Clear
3:55 AM 39.2 °F 33.6 °F 21.2 °F 49% 30.41 in 10.0 mi North 8.1 mph - N/A   Clear
4:15 AM 41.0 °F 37.1 °F 21.2 °F 45% 30.41 in 10.0 mi North 5.8 mph - N/A   Clear
4:35 AM 37.4 °F 32.1 °F 21.2 °F 52% 30.41 in 10.0 mi NNW 6.9 mph - N/A   Clear
4:55 AM 37.4 °F 33.8 °F 19.4 °F 48% 30.41 in 10.0 mi North 4.6 mph - N/A   Clear
5:15 AM 39.2 °F 33.6 °F 19.4 °F 45% 30.41 in 10.0 mi North 8.1 mph - N/A   Clear
5:35 AM 39.2 °F 33.6 °F 19.4 °F 45% 30.41 in 10.0 mi North 8.1 mph - N/A   Clear
5:55 AM 39.2 °F 34.2 °F 21.2 °F 49% 30.41 in 10.0 mi North 6.9 mph - N/A   Clear
6:15 AM 37.4 °F 33.8 °F 21.2 °F 52% 30.41 in 10.0 mi North 4.6 mph - N/A   Clear
6:35 AM 37.4 °F 32.1 °F 19.4 °F 48% 30.42 in 10.0 mi North 6.9 mph - N/A   Clear
6:55 AM 39.2 °F 34.2 °F 19.4 °F 45% 30.42 in 10.0 mi NNE 6.9 mph - N/A   Clear
7:35 AM 44.6 °F 39.2 °F 19.4 °F 37% 30.42 in 10.0 mi NNE 10.4 mph - N/A   Clear
7:55 AM 46.4 °F 41.5 °F 19.4 °F 34% 30.42 in 10.0 mi NNE 10.4 mph - N/A   Clear
8:15 AM 46.4 °F 40.7 °F 19.4 °F 34% 30.42 in 10.0 mi NNE 12.7 mph 16.1 mph N/A   Clear
8:35 AM 48.2 °F - 19.4 °F 32% 30.42 in 10.0 mi NNE 13.8 mph - N/A   Clear
8:55 AM 48.2 °F - 19.4 °F 32% 30.42 in 10.0 mi NE 10.4 mph 17.3 mph N/A   Clear
9:15 AM 50.0 °F - 19.4 °F 30% 30.42 in 10.0 mi NE 13.8 mph 21.9 mph N/A   Clear
9:35 AM 51.8 °F - 19.4 °F 28% 30.43 in 10.0 mi NNE 11.5 mph - N/A   Clear
9:55 AM 51.8 °F - 21.2 °F 30% 30.42 in 10.0 mi NNE 13.8 mph 17.3 mph N/A   Clear
10:15 AM 53.6 °F - 21.2 °F 28% 30.42 in 10.0 mi NNE 11.5 mph - N/A   Clear
10:35 AM 53.6 °F - 21.2 °F 28% 30.42 in 10.0 mi NE 11.5 mph - N/A   Clear
10:55 AM 55.4 °F - 21.2 °F 26% 30.42 in 10.0 mi NE 10.4 mph 17.3 mph N/A   Clear
11:15 AM 55.4 °F - 21.2 °F 26% 30.41 in 10.0 mi NE 10.4 mph - N/A   Clear
11:35 AM 55.4 °F - 19.4 °F 25% 30.41 in 10.0 mi NNE 10.4 mph 17.3 mph N/A   Clear
11:55 AM 57.2 °F - 17.6 °F 21% 30.40 in 10.0 mi NNE 12.7 mph - N/A   Clear
12:15 PM 57.2 °F - 15.8 °F 20% 30.40 in 10.0 mi North 12.7 mph - N/A   Clear
12:35 PM 57.2 °F - 15.8 °F 20% 30.39 in 10.0 mi North 10.4 mph - N/A   Clear
12:55 PM 57.2 °F - 15.8 °F 20% 30.39 in 10.0 mi North 10.4 mph - N/A   Clear
1:15 PM 59.0 °F - 15.8 °F 19% 30.38 in 10.0 mi North 10.4 mph - N/A   Clear
1:35 PM 59.0 °F - 14.0 °F 17% 30.37 in 10.0 mi NNE 8.1 mph 17.3 mph N/A   Clear
1:55 PM 60.8 °F - 12.2 °F 15% 30.37 in 10.0 mi North 12.7 mph - N/A   Clear
2:15 PM 60.8 °F - 12.2 °F 15% 30.36 in 10.0 mi North 10.4 mph - N/A   Clear
2:35 PM 60.8 °F - 12.2 °F 15% 30.36 in 10.0 mi North 8.1 mph - N/A   Clear
2:55 PM 60.8 °F - 12.2 °F 15% 30.36 in 10.0 mi North 10.4 mph - N/A   Clear
3:15 PM 60.8 °F - 10.4 °F 14% 30.35 in 10.0 mi NNE 8.1 mph - N/A   Clear
3:35 PM 59.0 °F - 8.6 °F 14% 30.35 in 10.0 mi NNE 9.2 mph - N/A   Clear
3:55 PM 59.0 °F - 8.6 °F 14% 30.35 in 10.0 mi NNE 5.8 mph - N/A   Clear
4:15 PM 57.2 °F - 8.6 °F 14% 30.35 in 10.0 mi NNE 4.6 mph - N/A   Clear
4:35 PM 57.2 °F - 8.6 °F 14% 30.35 in 10.0 mi North 4.6 mph - N/A   Clear
4:55 PM 55.4 °F - 8.6 °F 15% 30.35 in 10.0 mi North 3.5 mph - N/A   Clear
5:15 PM 53.6 °F - 10.4 °F 18% 30.35 in 10.0 mi NNW 3.5 mph - N/A   Clear
5:35 PM 51.8 °F - 14.0 °F 22% 30.35 in 10.0 mi Calm Calm - N/A   Clear
5:55 PM 51.8 °F - 14.0 °F 22% 30.35 in 10.0 mi Calm Calm - N/A   Clear
6:15 PM 48.2 °F - 14.0 °F 25% 30.35 in 10.0 mi Calm Calm - N/A   Clear
6:35 PM 48.2 °F - 14.0 °F 25% 30.35 in 10.0 mi Calm Calm - N/A   Clear
6:55 PM 48.2 °F - 15.8 °F 27% 30.35 in 10.0 mi NNW 4.6 mph - N/A   Clear
7:15 PM 44.6 °F 43.1 °F 17.6 °F 34% 30.34 in 10.0 mi NNW 3.5 mph - N/A   Clear
7:35 PM 46.4 °F 44.3 °F 17.6 °F 32% 30.34 in 10.0 mi North 4.6 mph - N/A   Clear
7:55 PM 48.2 °F - 17.6 °F 30% 30.33 in 10.0 mi North 4.6 mph - N/A   Clear
8:15 PM 42.8 °F 39.3 °F 19.4 °F 39% 30.34 in 10.0 mi NNW 5.8 mph - N/A   Clear
8:35 PM 44.6 °F 40.7 °F 19.4 °F 37% 30.34 in 10.0 mi North 6.9 mph - N/A   Clear
9:35 PM 46.4 °F 42.9 °F 17.6 °F 32% 30.33 in 10.0 mi North 6.9 mph - N/A   Clear
9:55 PM 44.6 °F 40.7 °F 17.6 °F 34% 30.33 in 10.0 mi North 6.9 mph - N/A   Clear
10:15 PM 48.2 °F - 17.6 °F 30% 30.32 in 10.0 mi North 6.9 mph - N/A   Clear
10:35 PM 46.4 °F 43.5 °F 19.4 °F 34% 30.32 in 10.0 mi North 5.8 mph - N/A   Clear
10:55 PM 48.2 °F - 21.2 °F 34% 30.32 in 10.0 mi North 6.9 mph - N/A   Clear
11:15 PM 46.4 °F 43.5 °F 19.4 °F 34% 30.32 in 10.0 mi North 5.8 mph - N/A   Clear
11:35 PM 46.4 °F 43.5 °F 19.4 °F 34% 30.31 in 10.0 mi North 5.8 mph - N/A   Clear
11:55 PM 46.4 °F 43.5 °F 21.2 °F 37% 30.31 in 10.0 mi North 5.8 mph - N/A   Clear